Norfolk, NE

11:26 AM CDT on April 23, 2018 (GMT -0500)
Stefan Memorial

Weather History for KOFK - October, 2012

Change the Weather History Date:

Tuesday, October 9, 2012

  Actual Average Record
Temperature  
Mean Temperature 43 °F 54 °F  
Max Temperature 57 °F 67 °F 92 °F (1928)
Min Temperature 29 °F 41 °F 23 °F (1964)
Degree Days  
Heating Degree Days 22 12  
Month to date heating degree days 153 93  
Since 1 July heating degree days 272 235  
Cooling Degree Days 0 0  
Month to date cooling degree days 0 8  
Year to date cooling degree days 1373 914  
Moisture  
Dew Point 29 °F    
Average Humidity 48    
Maximum Humidity 74    
Minimum Humidity 22    
Precipitation  
Precipitation 0.00 in 0.08 in 1.24 in (1904)
Month to date precipitation 0.05 0.72  
Year to date precipitation 12.50 23.94  
Snow  
Snow 0.00 in 0.10 in - ()
Month to date snowfall 0.0 0.1  
Since 1 July snowfall 0.0 0.1  
Snow Depth 0.00 in    
Sea Level Pressure  
Sea Level Pressure 29.97 in    
Wind  
Wind Speed 13 mph (NW)    
Max Wind Speed 31 mph    
Max Gust Speed 38 mph    
Visibility 10 miles    
Events      
T = Trace of Precipitation, MM = Missing Value Source: NWS Daily Summary

Daily Weather History Graph

Daily Weather History Graph

Search for Another Location

Airport or City:

Astronomy

Oct. 09, 2012 Rise Set
Actual Time 7:36 AM CDT 6:56 PM CDT
Civil Twilight 7:08 AM CDT 7:24 PM CDT
Nautical Twilight 6:35 AM CDT 7:57 PM CDT
Astronomical Twilight 6:03 AM CDT 8:29 PM CDT
Moon 1:08 AM CDT (10/9) 3:30 PM CDT (10/9)
Length of Visible Light 12h 16m
Length of Day
11h 20m
Last Quarter, 36% of the Moon is Illuminated
Oct 9
Last Quarter
Oct 15
New
Oct 21
First Quarter
Oct 29
Full
Nov 6
Last Quarter

Hourly Weather History & Observations

Time (CDT) Temp. Windchill Dew Point Humidity Pressure Visibility Wind Dir Wind Speed Gust Speed Precip Events Conditions
12:56 AM 53.1 °F - 37.9 °F 57% 29.83 in 10.0 mi Calm Calm - N/A   Mostly Cloudy
1:56 AM 52.0 °F - 39.0 °F 61% 29.80 in 10.0 mi Calm Calm - N/A   Overcast
2:56 AM 45.0 °F 41.2 °F 36.0 °F 71% 29.82 in 10.0 mi West 6.9 mph - N/A   Clear
3:56 AM 46.9 °F - 37.9 °F 71% 29.82 in 10.0 mi WSW 3.5 mph - N/A   Partly Cloudy
4:56 AM 46.9 °F - 37.9 °F 71% 29.82 in 10.0 mi WNW 5.8 mph - N/A   Partly Cloudy
5:56 AM 50.0 °F - 41.0 °F 71% 29.84 in 10.0 mi NW 12.7 mph - N/A   Clear
6:56 AM 50.0 °F - 41.0 °F 71% 29.86 in 10.0 mi NNW 11.5 mph - N/A   Clear
7:56 AM 50.0 °F - 42.1 °F 74% 29.90 in 10.0 mi NNW 16.1 mph - N/A   Mostly Cloudy
8:56 AM 48.9 °F - 37.0 °F 64% 29.93 in 10.0 mi NNW 24.2 mph 29.9 mph N/A   Overcast
9:56 AM 46.0 °F 38.0 °F 33.1 °F 61% 29.98 in 10.0 mi NNW 21.9 mph 38.0 mph N/A   Mostly Cloudy
10:56 AM 50.0 °F - 28.9 °F 44% 29.99 in 10.0 mi NNW 20.7 mph 28.8 mph N/A   Mostly Cloudy
11:56 AM 50.0 °F - 24.1 °F 36% 29.99 in 10.0 mi NNW 19.6 mph 32.2 mph N/A   Partly Cloudy
12:56 PM 50.0 °F - 21.9 °F 33% 29.99 in 10.0 mi NW 20.7 mph 33.4 mph N/A   Partly Cloudy
1:56 PM 54.0 °F - 21.9 °F 29% 29.99 in 10.0 mi NW 21.9 mph 27.6 mph N/A   Partly Cloudy
2:56 PM 55.9 °F - 21.9 °F 27% 29.99 in 10.0 mi NNW 19.6 mph 26.5 mph N/A   Clear
3:56 PM 55.9 °F - 19.9 °F 25% 29.99 in 10.0 mi NW 19.6 mph 33.4 mph N/A   Clear
4:56 PM 55.0 °F - 18.0 °F 23% 30.01 in 10.0 mi NNW 23.0 mph 28.8 mph N/A   Clear
5:56 PM 52.0 °F - 19.0 °F 27% 30.03 in 10.0 mi NNW 19.6 mph 25.3 mph N/A   Clear
6:56 PM 50.0 °F - 19.0 °F 29% 30.06 in 10.0 mi NW 15.0 mph 21.9 mph N/A   Mostly Cloudy
7:56 PM 48.0 °F - 23.0 °F 37% 30.08 in 10.0 mi NNW 9.2 mph - N/A   Overcast
8:56 PM 41.0 °F 38.0 °F 23.0 °F 49% 30.12 in 10.0 mi NNW 4.6 mph - N/A   Clear
9:56 PM 36.0 °F 33.3 °F 21.9 °F 57% 30.16 in 10.0 mi West 3.5 mph - N/A   Clear
10:56 PM 36.0 °F 33.3 °F 21.9 °F 57% 30.17 in 10.0 mi West 3.5 mph - N/A   Clear
11:56 PM 30.0 °F 24.1 °F 21.0 °F 69% 30.18 in 10.0 mi WSW 5.8 mph - N/A   Clear